This is the latest recevied weather packets stored in our database for station/object KK7MLS-13. If no packets are shown the sender has not sent any weather packets the latest 10 day(s).
| Time | Temp. | Humidity | Pressure | Rain* | Wind** | Luminosity | Snow |
|---|---|---|---|---|---|---|---|
| 1788311550 | 18.89° C | 67% | 1011.5 hPa | 0 mm | - | 33 W/m² | - |
| 1788311249 | 18.89° C | 66% | 1011.7 hPa | 0 mm | - | 33 W/m² | - |
| 1788310945 | 19.44° C | 65% | 1011.7 hPa | 0 mm | - | 32 W/m² | - |
| 1788310643 | 19.44° C | 63% | 1011.5 hPa | 0 mm | - | 38 W/m² | - |
| 1788310339 | 19.44° C | 63% | 1011.5 hPa | 0 mm | - | 57 W/m² | - |
| 1788310039 | 19.44° C | 63% | 1011.3 hPa | 0 mm | - | 56 W/m² | - |
| 1788309734 | 19.44° C | 63% | 1011.6 hPa | 0 mm | - | 59 W/m² | - |
| 1788309429 | 19.44° C | 63% | 1011.6 hPa | 0 mm | - | 91 W/m² | - |
| 1788309125 | 19.44° C | 62% | 1011.5 hPa | 0 mm | - | 81 W/m² | - |
| 1788308821 | 20° C | 62% | 1011.4 hPa | 0 mm | - | 82 W/m² | - |
| 1788308520 | 20° C | 62% | 1011.2 hPa | 0 mm | - | 80 W/m² | - |
| 1788308216 | 19.44° C | 63% | 1011.3 hPa | 0 mm | - | 101 W/m² | - |
| 1788307915 | 19.44° C | 63% | 1011.4 hPa | 0 mm | - | 94 W/m² | - |
| 1788307628 | 20° C | 63% | 1011.4 hPa | 0 mm | - | 94 W/m² | - |
| 1788307306 | 20° C | 63% | 1011.4 hPa | 0 mm | - | 100 W/m² | - |
| 1788307005 | 20° C | 62% | 1011.4 hPa | 0 mm | - | 106 W/m² | - |
| 1788306701 | 20° C | 63% | 1011.3 hPa | 0 mm | - | 124 W/m² | - |
| 1788306400 | 19.44° C | 62% | 1011.4 hPa | 0 mm | - | 119 W/m² | - |
| 1788306095 | 19.44° C | 62% | 1011.5 hPa | 0 mm | - | 111 W/m² | - |
| 1788305790 | 19.44° C | 63% | 1011.5 hPa | 0 mm | - | 111 W/m² | - |
| 1788305486 | 19.44° C | 63% | 1011.6 hPa | 0 mm | - | 104 W/m² | - |
| 1788305186 | 19.44° C | 62% | 1011.4 hPa | 0 mm | - | 120 W/m² | - |
| 1788304881 | 19.44° C | 63% | 1011.6 hPa | 0 mm | - | 121 W/m² | - |
| 1788304578 | 19.44° C | 63% | 1011.7 hPa | 0 mm | - | 105 W/m² | - |
| 1788304274 | 19.44° C | 64% | 1011.6 hPa | 0 mm | - | 101 W/m² | - |
* Rain latest hour (hover to see other rain measurements)
** Current wind speed in m/s (hover to see current wind gust speed)